Seattle, WA
on Saturday, February 23, 2013

Saturday
Previous Day Next Day
Daily Summary
 ActualAverageRecord
Temperature
Mean Temperature °F 44°F  
Max Temperature 50°F 51°F 61°F (1983)
Min Temperature 39°F 37°F 27°F (2011)
Degree Days
Heating Degree Days 20 21  
Month to date heating degree days 470 501  
Since 1 July heating degree days 3044 3150  
Cooling Degree Days 0 0  
Month to date cooling degree days 0 0  
Year to date cooling degree days 0 0  
Moisture
Dew Point 35°F   
Average Humidity 69    
Maximum Humidity 86    
Minimum Humidity 52    
Precipitation
Precipitation 0.01 in 0.11 in 1.16 in (1986)
Month to date precipitation 0.97 2.88  
Year to date precipitation 5.13 8.45  
Snow
Snow 0.00 in in 3.00 in (1956)
Month to date snowfall 0.0  
Since 1 July snowfall 0.6  
Snow Depth 0.00 in   
Wind
Wind Speed 10 mph   
Max Wind Speed 22 mph   
Max Gust Speed 30 mph   
Visibility 10 miles   
Events Rain   

Key: T is trace of precipitation, MM is missing value
Source: NWS Daily Summary
Time(PST)TemperatureDew PointHumidity Pressure Visibility Wind DirectionWind SpeedGust SpeedPrecipitationEvents Conditions
12:53 AM 39.9°F 35.1°F 83% 29.94 in 10.0 miles SSW 19.6 mph 26.5 mph N/A   Overcast
1:53 AM 39.9°F 35.1°F 83% 29.96 in 10.0 miles SSW 13.8 mph 21.9 mph N/A   Overcast
2:53 AM 39.9°F 35.1°F 83% 29.98 in 10.0 miles South 13.8 mph - N/A   Overcast
3:53 AM 39.9°F 35.1°F 83% 30.00 in 10.0 miles SSW 11.5 mph - N/A   Overcast
4:53 AM 41.0°F 37.0°F 86% 30.03 in 10.0 miles SW 10.4 mph - N/A   Overcast
5:53 AM 41.0°F 35.1°F 79% 30.05 in 10.0 miles SSW 9.2 mph - N/A   Mostly Cloudy
6:53 AM 39.9°F 35.1°F 83% 30.08 in 10.0 miles South 5.8 mph - N/A   Mostly Cloudy
6:58 AM 39.2°F 35.6°F 87% 30.06 in 10.0 miles SSE 6.9 mph - N/A   Mostly Cloudy
7:53 AM 41.0°F 36.0°F 82% 30.12 in 10.0 miles South 5.8 mph - N/A   Overcast
8:53 AM 42.1°F 36.0°F 79% 30.15 in 10.0 miles South 11.5 mph - N/A   Mostly Cloudy
9:53 AM 44.1°F 36.0°F 73% 30.18 in 10.0 miles South 9.2 mph - N/A   Overcast
10:53 AM 44.1°F 36.0°F 73% 30.21 in 10.0 miles South 10.4 mph - N/A   Overcast
11:53 AM 46.4°F 35.6°F 66% 30.20 in 10.0 miles South 10.4 mph - N/A   Overcast
12:53 PM 48.9°F 36.0°F 61% 30.23 in 10.0 miles SSW 9.2 mph 19.6 mph N/A   Overcast
1:53 PM 50.0°F 34.0°F 54% 30.24 in 10.0 miles SSW 10.4 mph - N/A   Mostly Cloudy
2:53 PM 46.9°F 34.0°F 61% 30.26 in 10.0 miles SW 11.5 mph - N/A   Mostly Cloudy
3:53 PM 48.0°F 35.1°F 61% 30.28 in 10.0 miles SW 12.7 mph - 0.00 in Rain Light Rain
4:53 PM 46.9°F 34.0°F 61% 30.28 in 10.0 miles SSW 11.5 mph - 0.00 in   Mostly Cloudy
5:53 PM 45.0°F 36.0°F 71% 30.31 in 10.0 miles SSW 6.9 mph - 0.01 in   Mostly Cloudy
6:53 PM 44.1°F 36.0°F 73% 30.33 in 10.0 miles SSW 9.2 mph - N/A   Mostly Cloudy
7:53 PM 42.8°F 33.8°F 70% 30.33 in 10.0 miles SSW 12.7 mph - N/A   Mostly Cloudy
8:53 PM 42.1°F 33.1°F 70% 30.37 in 10.0 miles SSE 8.1 mph - N/A   Scattered Clouds
9:53 PM 41.0°F 33.1°F 73% 30.39 in 10.0 miles South 9.2 mph - N/A   Overcast
10:53 PM 41.0°F 34.0°F 76% 30.40 in 10.0 miles South 8.1 mph - N/A   Overcast
11:30 PM 39.2°F 33.8°F 81% 30.37 in 10.0 miles South 8.1 mph - N/A   Overcast
11:53 PM 41.0°F 34.0°F 76% 30.40 in 10.0 miles South 8.1 mph - N/A   Overcast
Moon Phase
Feb. 23 Feb. 25 Mar. 04 Mar. 11 Mar. 19
Sunrise:07:00 AM (PST) Moon Rise:03:57 PM (PST)2/23
Sunset:05:45 PM (PST) Moon Set:05:30 AM (PST)2/23

Copyright © 2014 The Weather Underground, Inc.